�������l�o���
Date,Time,MP-1(��Sv/h),MP-2(��Sv/h),MP-3(��Sv/h),MP-4(��Sv/h),MP-5(��Sv/h),MP-6(��Sv/h),MP-7(��Sv/h),����,����(m/s),���J
2018/01/01,00:00,0.340,0.206,0.344,0.323,0.304,0.170,0.102,�k�k��,1.4,��
2018/01/01,00:10,0.339,0.205,0.345,0.322,0.303,0.170,0.101,-,CALM,��
2018/01/01,00:20,0.339,0.206,0.344,0.320,0.306,0.169,0.101,�k��,0.6,��
2018/01/01,00:30,0.340,0.207,0.344,0.320,0.304,0.170,0.101,�k�k��,1.1,��
2018/01/01,00:40,0.340,0.207,0.343,0.322,0.304,0.170,0.101,�k�k��,2.7,��
2018/01/01,00:50,0.340,0.205,0.344,0.322,0.304,0.170,0.102,�k�k��,1.9,��
2018/01/01,01:00,0.339,0.205,0.344,0.322,0.305,0.171,0.102,�k,1.7,��
2018/01/01,01:10,0.339,0.206,0.344,0.321,0.305,0.169,0.102,�k,3.0,��
2018/01/01,01:20,0.341,0.206,0.344,0.322,0.304,0.170,0.101,�k,3.3,��
2018/01/01,01:30,0.340,0.206,0.345,0.323,0.304,0.169,0.101,�k,4.3,��
2018/01/01,01:40,0.340,0.205,0.344,0.323,0.306,0.170,0.102,�k,3.8,��
2018/01/01,01:50,0.340,0.206,0.343,0.322,0.304,0.170,0.101,�k�k��,5.2,��
2018/01/01,02:00,0.341,0.207,0.344,0.322,0.305,0.170,0.102,�k�k��,8.1,��
2018/01/01,02:10,0.341,0.206,0.344,0.322,0.304,0.170,0.101,�k��,8.2,��
2018/01/01,02:20,0.340,0.206,0.345,0.323,0.304,0.170,0.103,�k�k��,7.6,��
2018/01/01,02:30,0.340,0.207,0.344,0.322,0.304,0.170,0.102,�k�k��,7.0,��
2018/01/01,02:40,0.340,0.206,0.343,0.323,0.304,0.170,0.102,�k�k��,6.8,��
2018/01/01,02:50,0.341,0.207,0.345,0.321,0.303,0.170,0.101,�k�k��,8.4,��
2018/01/01,03:00,0.340,0.207,0.344,0.322,0.305,0.170,0.103,�k��,7.7,��
2018/01/01,03:10,0.341,0.206,0.343,0.324,0.304,0.170,0.102,�k��,7.3,��
2018/01/01,03:20,0.340,0.206,0.345,0.322,0.304,0.170,0.102,�k��,7.0,��
2018/01/01,03:30,0.340,0.207,0.345,0.321,0.305,0.170,0.102,�k��,7.8,��
2018/01/01,03:40,0.341,0.207,0.344,0.322,0.304,0.170,0.102,�k��,8.2,��
2018/01/01,03:50,0.340,0.206,0.343,0.323,0.304,0.170,0.102,�k�k��,8.7,��
2018/01/01,04:00,0.341,0.206,0.344,0.323,0.304,0.170,0.102,�k�k��,8.5,��
2018/01/01,04:10,0.341,0.206,0.345,0.322,0.304,0.171,0.103,�k�k��,9.8,��
2018/01/01,04:20,0.340,0.206,0.343,0.324,0.306,0.169,0.102,�k�k��,6.8,��
2018/01/01,04:30,0.340,0.207,0.343,0.323,0.305,0.170,0.102,�k�k��,7.0,��
2018/01/01,04:40,0.340,0.207,0.343,0.322,0.303,0.170,0.102,�k�k��,6.4,��
2018/01/01,04:50,0.339,0.206,0.345,0.321,0.304,0.169,0.102,�k�k��,7.8,��
2018/01/01,05:00,0.339,0.208,0.344,0.321,0.304,0.170,0.102,�k�k��,7.1,��
2018/01/01,05:10,0.341,0.207,0.343,0.321,0.304,0.170,0.102,�k�k��,5.9,��
2018/01/01,05:20,0.341,0.206,0.345,0.323,0.303,0.171,0.102,�k�k��,4.6,��
2018/01/01,05:30,0.340,0.207,0.345,0.321,0.303,0.171,0.102,�k�k��,2.4,��
2018/01/01,05:40,0.339,0.206,0.344,0.324,0.304,0.169,0.102,�k�k��,3.6,��
2018/01/01,05:50,0.340,0.207,0.345,0.322,0.305,0.170,0.102,�k�k��,2.3,��
2018/01/01,06:00,0.341,0.207,0.343,0.323,0.305,0.170,0.101,�k,3.5,��
2018/01/01,06:10,0.341,0.206,0.346,0.322,0.303,0.170,0.101,�k�k��,4.4,��
2018/01/01,06:20,0.340,0.205,0.344,0.322,0.303,0.170,0.101,�k�k��,3.8,��
2018/01/01,06:30,0.340,0.206,0.344,0.322,0.305,0.171,0.102,�k�k��,3.9,��
2018/01/01,06:40,0.340,0.207,0.343,0.322,0.305,0.170,0.101,�k,3.8,��
2018/01/01,06:50,0.341,0.207,0.344,0.322,0.304,0.169,0.102,�k,3.6,��
2018/01/01,07:00,0.339,0.206,0.345,0.323,0.304,0.170,0.102,�k�k��,4.2,��
2018/01/01,07:10,0.340,0.205,0.345,0.322,0.305,0.169,0.102,�k�k��,5.4,��
2018/01/01,07:20,0.340,0.207,0.343,0.322,0.304,0.171,0.102,�k,4.0,��
2018/01/01,07:30,0.340,0.207,0.344,0.322,0.304,0.170,0.102,�k,4.4,��
2018/01/01,07:40,0.340,0.207,0.344,0.321,0.304,0.169,0.103,�k�k��,4.5,��
2018/01/01,07:50,0.340,0.206,0.344,0.321,0.305,0.170,0.102,�k,3.5,��
2018/01/01,08:00,0.339,0.206,0.344,0.323,0.304,0.170,0.103,�k,3.5,��
2018/01/01,08:10,0.340,0.207,0.343,0.321,0.304,0.170,0.101,�k��,3.7,��
2018/01/01,08:20,0.339,0.206,0.344,0.321,0.304,0.169,0.102,�k,6.2,��
2018/01/01,08:30,0.340,0.206,0.345,0.321,0.305,0.170,0.101,�k��,2.6,��
2018/01/01,08:40,0.341,0.206,0.343,0.321,0.304,0.169,0.101,�k�k��,2.0,��
2018/01/01,08:50,0.341,0.207,0.343,0.320,0.305,0.169,0.101,�k��,8.2,��
2018/01/01,09:00,0.340,0.206,0.343,0.321,0.304,0.170,0.102,�k��,9.3,��
2018/01/01,09:10,0.340,0.207,0.344,0.322,0.304,0.170,0.101,�k,7.3,��
2018/01/01,09:20,0.340,0.205,0.345,0.320,0.306,0.171,0.101,�k�k��,5.8,��
2018/01/01,09:30,0.340,0.206,0.344,0.322,0.304,0.170,0.102,�k�k��,6.7,��
2018/01/01,09:40,0.341,0.205,0.344,0.322,0.304,0.171,0.101,�k�k��,7.5,��
2018/01/01,09:50,0.340,0.205,0.346,0.322,0.306,0.171,0.102,�k,7.9,��
2018/01/01,10:00,0.341,0.206,0.344,0.321,0.304,0.171,0.101,�k��,8.4,��
2018/01/01,10:10,0.341,0.207,0.345,0.321,0.305,0.170,0.101,�k�k��,6.4,��
2018/01/01,10:20,0.338,0.206,0.347,0.322,0.306,0.171,0.101,�k�k��,5.5,��
2018/01/01,10:30,0.340,0.205,0.344,0.320,0.305,0.170,0.103,�k�k��,6.5,��
2018/01/01,10:40,0.339,0.206,0.344,0.322,0.306,0.171,0.101,�k�k��,7.6,��
2018/01/01,10:50,0.339,0.207,0.345,0.322,0.304,0.171,0.101,�k��,8.4,��
2018/01/01,11:00,0.339,0.206,0.348,0.322,0.305,0.171,0.102,�k��,9.2,��
2018/01/01,11:10,0.339,0.205,0.346,0.323,0.304,0.171,0.103,�k�k��,8.5,��
2018/01/01,11:20,0.340,0.206,0.345,0.321,0.305,0.170,0.102,�k��,6.5,��
2018/01/01,11:30,0.339,0.207,0.347,0.323,0.306,0.172,0.102,�k��,6.0,��
2018/01/01,11:40,0.341,0.207,0.345,0.321,0.303,0.170,0.102,�k��,8.7,��
2018/01/01,11:50,0.339,0.208,0.344,0.322,0.306,0.171,0.101,�k��,9.3,��
2018/01/01,12:00,0.340,0.205,0.344,0.324,0.304,0.171,0.101,�k��,6.2,��
2018/01/01,12:10,0.340,0.206,0.343,0.322,0.307,0.172,0.102,�k��,7.3,��
2018/01/01,12:20,0.338,0.206,0.346,0.323,0.304,0.171,0.101,�k��,7.4,��
2018/01/01,12:30,0.342,0.206,0.345,0.321,0.306,0.172,0.102,�k��,3.7,��
2018/01/01,12:40,0.339,0.208,0.344,0.324,0.306,0.171,0.102,�k��,4.3,��
2018/01/01,12:50,0.339,0.206,0.346,0.322,0.306,0.172,0.101,�k�k��,6.2,��
2018/01/01,13:00,0.338,0.205,0.344,0.324,0.306,0.171,0.101,�k�k��,6.2,��
2018/01/01,13:10,0.341,0.206,0.345,0.321,0.306,0.171,0.102,�k�k��,7.1,��
2018/01/01,13:20,0.341,0.207,0.345,0.323,0.308,0.171,0.101,�k�k��,5.5,��
2018/01/01,13:30,0.341,0.206,0.343,0.321,0.307,0.171,0.102,�k��,5.6,��
2018/01/01,13:40,0.341,0.207,0.345,0.324,0.307,0.170,0.101,���k��,5.9,��
2018/01/01,13:50,0.342,0.206,0.344,0.322,0.307,0.172,0.102,�k��,5.1,��
2018/01/01,14:00,0.340,0.207,0.345,0.324,0.305,0.171,0.102,�k�k��,5.9,��
2018/01/01,14:10,0.343,0.207,0.344,0.321,0.306,0.171,0.102,�k��,5.2,��
2018/01/01,14:20,0.342,0.207,0.346,0.324,0.304,0.171,0.102,���k��,7.1,��
2018/01/01,14:30,0.341,0.207,0.347,0.321,0.305,0.170,0.103,���k��,7.1,��
2018/01/01,14:40,0.341,0.207,0.345,0.322,0.305,0.171,0.103,�k��,5.0,��
2018/01/01,14:50,0.342,0.207,0.345,0.324,0.306,0.170,0.103,�k��,5.4,��
2018/01/01,15:00,0.340,0.208,0.346,0.322,0.308,0.170,0.102,�k��,4.8,��
2018/01/01,15:10,0.341,0.207,0.347,0.324,0.308,0.171,0.102,�k��,4.4,��
2018/01/01,15:20,0.343,0.206,0.345,0.323,0.308,0.171,0.102,���k��,5.6,��
2018/01/01,15:30,0.341,0.207,0.345,0.323,0.307,0.170,0.102,�k��,4.4,��
2018/01/01,15:40,0.343,0.208,0.347,0.325,0.306,0.171,0.102,�k��,3.9,��
2018/01/01,15:50,0.342,0.207,0.345,0.325,0.307,0.171,0.103,��,5.4,��
2018/01/01,16:00,0.342,0.206,0.345,0.324,0.308,0.172,0.102,��,2.0,��
2018/01/01,16:10,0.342,0.206,0.345,0.324,0.307,0.172,0.102,���k��,2.2,��
2018/01/01,16:20,0.342,0.206,0.345,0.325,0.307,0.172,0.102,���k��,3.0,��
2018/01/01,16:30,0.342,0.207,0.345,0.323,0.308,0.172,0.102,���k��,2.4,��
2018/01/01,16:40,0.342,0.206,0.346,0.323,0.306,0.171,0.102,���k��,3.5,��
2018/01/01,16:50,0.341,0.207,0.346,0.324,0.307,0.173,0.102,���k��,2.4,��
2018/01/01,17:00,0.343,0.206,0.346,0.325,0.307,0.172,0.102,���k��,2.0,��
2018/01/01,17:10,0.340,0.207,0.345,0.323,0.307,0.171,0.102,���k��,1.9,��
2018/01/01,17:20,0.342,0.207,0.344,0.324,0.306,0.172,0.102,��,3.4,��
2018/01/01,17:30,0.341,0.208,0.346,0.325,0.306,0.172,0.102,��,2.7,��
2018/01/01,17:40,0.341,0.208,0.346,0.325,0.306,0.172,0.102,��,3.0,��
2018/01/01,17:50,0.343,0.207,0.344,0.324,0.306,0.170,0.103,���k��,4.4,��
2018/01/01,18:00,0.341,0.207,0.344,0.324,0.306,0.171,0.102,���k��,2.5,��
2018/01/01,18:10,0.341,0.207,0.346,0.325,0.306,0.171,0.102,���k��,2.8,��
2018/01/01,18:20,0.342,0.207,0.346,0.325,0.307,0.172,0.102,���k��,4.0,��
2018/01/01,18:30,0.343,0.207,0.344,0.324,0.306,0.171,0.101,���k��,5.2,��
2018/01/01,18:40,0.342,0.207,0.346,0.325,0.306,0.172,0.102,�k��,7.1,��
2018/01/01,18:50,0.341,0.208,0.346,0.324,0.305,0.172,0.103,�k��,9.3,��
2018/01/01,19:00,0.342,0.207,0.347,0.324,0.306,0.171,0.102,���k��,7.7,��
2018/01/01,19:10,0.343,0.207,0.346,0.325,0.307,0.171,0.103,�k��,7.3,��
2018/01/01,19:20,0.341,0.207,0.345,0.323,0.306,0.172,0.102,�k��,7.9,��
2018/01/01,19:30,0.342,0.207,0.345,0.323,0.305,0.170,0.102,�k��,7.6,��
2018/01/01,19:40,0.342,0.207,0.347,0.325,0.305,0.172,0.102,���k��,6.9,��
2018/01/01,19:50,0.341,0.208,0.347,0.325,0.307,0.171,0.103,�k��,8.7,��
2018/01/01,20:00,0.343,0.208,0.346,0.324,0.305,0.171,0.103,�k��,7.8,��
2018/01/01,20:10,0.342,0.207,0.346,0.324,0.306,0.171,0.102,�k��,8.1,��
2018/01/01,20:20,0.341,0.208,0.346,0.325,0.305,0.171,0.102,�k��,9.0,��
2018/01/01,20:30,0.341,0.207,0.347,0.324,0.308,0.172,0.103,�k��,7.6,��
2018/01/01,20:40,0.343,0.207,0.348,0.324,0.307,0.171,0.101,���k��,5.5,��
2018/01/01,20:50,0.343,0.206,0.344,0.324,0.307,0.170,0.102,�k��,4.4,��
2018/01/01,21:00,0.341,0.208,0.346,0.325,0.307,0.171,0.102,�k��,3.5,��
2018/01/01,21:10,0.342,0.207,0.346,0.324,0.306,0.171,0.102,�k��,3.4,��
2018/01/01,21:20,0.342,0.208,0.347,0.324,0.307,0.171,0.103,�k��,5.9,��
2018/01/01,21:30,0.342,0.208,0.346,0.324,0.306,0.171,0.102,���k��,5.6,��
2018/01/01,21:40,0.341,0.207,0.346,0.325,0.306,0.171,0.101,���k��,7.4,��
2018/01/01,21:50,0.341,0.206,0.347,0.324,0.307,0.171,0.103,�k��,6.2,��
2018/01/01,22:00,0.342,0.207,0.347,0.323,0.307,0.172,0.102,�k��,4.0,��
2018/01/01,22:10,0.342,0.207,0.345,0.323,0.306,0.170,0.102,�k��,3.6,��
2018/01/01,22:20,0.342,0.207,0.347,0.323,0.306,0.172,0.102,�k��,5.3,��
2018/01/01,22:30,0.341,0.208,0.347,0.325,0.305,0.170,0.103,���k��,4.6,��
2018/01/01,22:40,0.342,0.207,0.347,0.324,0.307,0.171,0.102,���k��,3.6,��
2018/01/01,22:50,0.341,0.207,0.347,0.324,0.306,0.172,0.102,���k��,5.0,��
2018/01/01,23:00,0.342,0.208,0.345,0.324,0.305,0.171,0.102,���k��,4.9,��
2018/01/01,23:10,0.341,0.207,0.345,0.324,0.305,0.171,0.102,���k��,4.9,��
2018/01/01,23:20,0.343,0.208,0.348,0.323,0.306,0.172,0.101,���k��,5.4,��
2018/01/01,23:30,0.342,0.207,0.347,0.325,0.305,0.171,0.102,�k��,6.3,��
2018/01/01,23:40,0.342,0.207,0.346,0.324,0.307,0.171,0.102,�k��,4.9,��
2018/01/01,23:50,0.341,0.207,0.346,0.325,0.306,0.171,0.102,�k��,3.8,��
